#timestamp,LO_Frequency,Hit,StdDev 
1458817215.7,286047004.8,N
1458817235.5,286047012.4,N
1458817255.4,286047008.9,N
1458817275.2,286047007.4,N
1458817295.0,286047007.7,N
1458817295.9,286047007.7,N
1458817315.8,286047009.5,N
1458817335.6,286047009.6,N
1458817355.4,286047011.2,N
1458817375.3,286047010.3,N
1458817395.1,286047012.3,N
1458817396.0,286047012.3,N
1458817415.8,286047011.2,N
1458817435.7,286047010.0,N
1458817455.5,286047011.2,N
1458817475.3,286047013.0,Y
1458817495.2,286047004.0,P
1458817515.9,286047005.4,P
1458817535.7,286047005.1,P
1458817555.6,286047006.5,Y
1458817575.4,286046998.6,P
1458817595.2,286046999.6,N
1458817615.1,286047003.7,N
1458817616.0,286047003.7,N
1458817635.8,286047004.1,N
1458817655.6,286047002.4,N
1458817675.5,286046999.0,N
1458817695.3,286046999.9,N
1458817715.1,286047000.3,N
1458817735.9,286047000.0,N
1458817755.7,286047003.6,N
1458817775.5,286047005.1,N
1458817795.3,286047004.6,N
1458817815.2,286047003.2,N
1458817835.0,286047003.0,N
1458817835.9,286047003.0,N
1458817855.7,286047003.7,N
1458817875.6,286047003.8,N
1458817895.4,286047003.9,N
1458817915.2,286047003.2,N
1458817935.1,286047008.5,Y
1458817936.0,286047008.5,P
1458817955.8,286047006.4,N
1458817975.6,286047007.8,P
1458817995.5,286047004.7,N
1458818015.3,286047002.9,N
1458818035.1,286047002.9,N
1458818055.9,286047004.4,N
1458818075.7,286047003.5,N
1458818095.5,286047003.0,N
1458818115.4,286047001.7,N
1458818135.2,286047001.3,N
1458818155.0,286047003.0,N
1458818155.9,286047003.0,N
1458818175.8,286047010.0,Y
1458818195.6,286047008.5,P
1458818215.4,286047011.7,P
1458818235.3,286047016.8,P
1458818255.1,286047017.6,Y
1458818256.0,286047017.6,P
1458818275.8,286047009.1,N
1458818295.7,286047010.2,N
1458818315.5,286047013.5,Y
1458818335.3,286047002.2,P
1458818355.2,286047001.5,N
1458818375.9,286047001.6,N
1458818395.7,286046999.6,N
1458818415.6,286046996.9,N
1458818435.4,286046996.5,N
1458818455.2,286046997.5,N
1458818475.0,286046999.2,N
1458818475.9,286046999.2,N
1458818495.8,286047000.8,N
1458818515.6,286047000.5,N
1458818535.4,286047002.1,N
1458818555.3,286046999.8,N
1458818575.1,286047002.8,N
1458818595.8,286046998.7,N
1458818615.7,286046997.8,N
1458818635.5,286047000.7,N
1458818655.3,286047001.9,N
1458818675.2,286047001.3,N
1458818695.9,286047003.0,N
1458818715.7,286047002.3,N
1458818735.6,286047002.6,N
1458818755.4,286047000.1,N
1458818775.2,286047001.2,N
1458818795.0,286046998.1,N
1458818795.9,286046998.1,N
1458818815.8,286047002.7,N
1458818835.6,286047000.1,N
1458818855.4,286047000.0,N
1458818875.3,286046999.4,N
1458818895.1,286046995.9,N
1458818915.8,286046996.4,N
1458818935.7,286046991.9,Y
1458818955.5,286046996.3,P
1458818975.3,286046994.7,N
1458818995.2,286046993.6,N
1458819015.9,286046993.4,N
1458819035.7,286046997.3,N
1458819055.6,286046994.5,N
1458819075.4,286046992.7,Y
1458819095.2,286046997.7,P
1458819115.1,286046996.2,P
1458819116.0,286046996.2,P
1458819135.8,286046992.3,Y
1458819155.6,286046995.3,P
1458819175.5,286046996.5,P
1458819195.3,286046996.8,P
1458819215.1,286046997.4,Y
1458819235.9,286047002.0,P
1458819255.7,286047004.1,N
1458819275.5,286047004.0,N
1458819295.7,286047003.2,N
1458819315.5,286046998.2,N
1458819335.3,286047003.4,N
1458819355.1,286047001.4,N
1458819375.9,286047000.6,N
1458819395.7,286046999.9,N
1458819415.5,286047002.3,N
1458819435.4,286047001.7,N
1458819455.2,286047002.8,N
1458819475.0,286047000.3,N
1458819475.9,286047000.3,N
1458819495.8,286047001.9,N
1458819515.6,286047001.7,N
1458819535.4,286046999.8,N
1458819555.3,286047001.9,N
1458819575.1,286046999.7,N
1458819576.0,286046999.7,N
1458819595.8,286047000.0,N
1458819615.7,286046999.3,N
1458819635.5,286046999.2,N
1458819655.3,286046999.4,N
1458819675.1,286046996.8,N
1458819695.9,286046995.3,N
1458819715.7,286046995.5,N
1458819735.5,286046997.2,N
1458819755.4,286046995.1,N
1458819775.2,286046994.9,N
1458819795.0,286046995.6,N
1458819795.9,286046995.6,N
1458819815.8,286046996.6,N
1458819835.6,286046998.2,N
1458819855.4,286046997.0,N
1458819875.3,286046992.3,Y
1458819895.1,286046992.5,P
1458819915.8,286046994.4,N
1458819935.7,286046993.8,N
1458819955.5,286046994.6,N
1458819975.3,286046993.4,N
1458819995.2,286046997.3,N
1458820015.9,286046993.5,Y
1458820035.7,286046998.7,P
1458820055.6,286046998.7,N
1458820075.4,286047000.0,N
1458820095.2,286047000.7,N
1458820115.1,286046996.5,N
1458820116.0,286046996.5,N
1458820135.8,286046997.2,N
1458820155.6,286046996.1,N
1458820175.5,286046995.3,N
1458820195.3,286046996.7,N
1458820215.1,286047001.2,N
1458820235.8,286047004.3,N
1458820255.7,286047002.8,N
1458820275.5,286046999.0,N
1458820295.3,286046999.0,N
1458820315.2,286046994.2,N
1458820335.9,286046994.5,N
1458820355.7,286046995.4,N
1458820375.6,286046995.8,N
1458820395.4,286046993.8,N
1458820415.2,286046996.1,N
1458820435.1,286046995.4,N
1458820436.0,286046995.4,N
1458820455.8,286046993.5,N
1458820475.6,286046996.2,N
1458820495.5,286046997.4,N
1458820515.3,286046997.6,N
1458820535.1,286046997.7,N
1458820555.8,286046998.0,N
1458820575.7,286046995.6,N
1458820595.5,286046997.7,N
1458820615.3,286046997.7,N
1458820635.2,286046995.1,N
1458820655.9,286046995.8,N
1458820675.7,286046997.9,N
1458820695.6,286046995.6,N
1458820715.4,286046999.1,N
1458820735.2,286046993.4,N
1458820755.1,286046999.2,N
1458820756.0,286046999.2,N
1458820775.8,286046995.6,N
1458820795.6,286046997.6,N
